{"data":{"norad_id":55140,"epoch":"2026-09-19T22:51:53.699040Z","epoch_age_seconds":73058,"freshness":"FRESH","line1":"1 55140U 23004A   26262.95270485 -.00000276  00000+0 -74348-3 0  9997","line2":"2 55140  87.9199 347.0449 0001832 109.8862 250.2467 13.17648889180065","mean_motion":13.17648889,"eccentricity":0.0001832,"inclination_deg":87.9199,"raan_deg":347.0449,"arg_perigee_deg":109.8862,"mean_anomaly_deg":250.2467,"bstar":-0.00074348,"rev_number":18006,"period_min":109.285562491,"perigee_km":1192.3265220581,"apogee_km":1195.1008481491,"semimajor_km":7571.8506851036,"source":"CELESTRAK","updated_at":"2026-09-20T09:00:44.749648Z"}}